User: anonymous
Location: Albany
(35.0000°S, 118.0000°E)
Time: 15:53:32
(UTC-04:00)
Language:

CZ-4B R/B - Orbit

View from above orbital plane
View from above orbital plane
View from above satellite
View from above satellite

Ground track
Ground track

The orbit data is extracted from the following two-line orbital elements,

1 33410U 08053C   14273.45519867  .00004467  00000-0  35884-3 0  9441
2 33410 097.5970 247.3593 0127653 273.8007 084.8626 14.94323446322566
Epoch (UTC): 30 September 2014 10:55:29
Eccentricity: 0.0127653
inclination: 97.5970°
perigee height: 495 km
apogee height: 673 km
right ascension of ascending node: 247.3593°
argument of perigee: 273.8007°
revolutions per day: 14.94323446
mean anomaly at epoch: 84.8626°
orbit number at epoch: 32256

The dashed part of the orbit path shows where the satellite is in the earth's shadow,  

DLR